This is the latest recevied weather packets stored in our database for station/object KK6LVQ-13. If no packets are shown the sender has not sent any weather packets the latest 1 day(s).
| Time | Temp. | Humidity | Pressure | Rain* | Wind** | Luminosity | Snow |
|---|---|---|---|---|---|---|---|
| 1778031424 | 13.33° C | 86% | 1021.4 hPa | 0 mm | - | 35 W/m² | - |
| 1778031121 | 13.33° C | 86% | 1021.5 hPa | 0 mm | - | 35 W/m² | - |
| 1778030817 | 13.33° C | 85% | 1021.5 hPa | 0 mm | - | 36 W/m² | - |
| 1778030514 | 13.33° C | 86% | 1021.4 hPa | 0 mm | - | 35 W/m² | - |
| 1778029907 | 13.33° C | 85% | 1021.3 hPa | 0 mm | - | 30 W/m² | - |
| 1778029606 | 13.89° C | 84% | 1021.4 hPa | 0 mm | - | 31 W/m² | - |
| 1778029303 | 13.89° C | 84% | 1021.4 hPa | 0 mm | - | 31 W/m² | - |
| 1778029000 | 13.89° C | 84% | 1021.4 hPa | 0 mm | - | 34 W/m² | - |
| 1778028697 | 13.89° C | 84% | 1021.4 hPa | 0 mm | - | 37 W/m² | - |
| 1778028392 | 13.89° C | 83% | 1021.5 hPa | 0 mm | - | 37 W/m² | - |
| 1778028090 | 13.89° C | 83% | 1021.2 hPa | 0 mm | - | 39 W/m² | - |
| 1778027781 | 13.89° C | 83% | 1021.1 hPa | 0 mm | - | 43 W/m² | - |
| 1778027477 | 13.89° C | 83% | 1021.1 hPa | 0 mm | - | 47 W/m² | - |
| 1778027173 | 13.89° C | 82% | 1021.2 hPa | 0 mm | - | 52 W/m² | - |
| 1778026869 | 14.44° C | 82% | 1021.1 hPa | 0 mm | - | 61 W/m² | - |
| 1778026565 | 14.44° C | 81% | 1021.2 hPa | 0 mm | - | 63 W/m² | - |
| 1778025960 | 14.44° C | 80% | 1020.9 hPa | 0 mm | - | 70 W/m² | - |
| 1778021721 | 14.44° C | 79% | 1021.2 hPa | 0 mm | - | 150 W/m² | - |
| 1778019596 | 13.89° C | 81% | 1021.1 hPa | 0 mm | - | 103 W/m² | - |
| 1778019294 | 14.44° C | 81% | 1021.3 hPa | 0 mm | - | 112 W/m² | - |
| 1778018991 | 14.44° C | 81% | 1021.4 hPa | 0 mm | - | 126 W/m² | - |
| 1778017781 | 14.44° C | 82% | 1021.6 hPa | 0 mm | - | 96 W/m² | - |
* Rain latest hour (hover to see other rain measurements)
** Current wind speed in m/s (hover to see current wind gust speed)